Find Starlink 31801

NORAD ID: 59647 Int'l Des: 2024-082 Owner: SPXS Country: US Constellation: starlink operational
LEOCIRCULAR

Current View

Loading 3D Globe...

About Starlink 31801

Starlink 31801 (NORAD 59647) is a starlink constellation satellite (v2 mini) launched May 3, 2024 by SPXS of US. It operates in LEO, CIRCULAR orbit with a mass of 730.00 kg.

Upcoming Passes

Passes for default location (London). Set your location on the main map for personalized predictions.

Altitude History

Loading altitude history...

Two-Line Element Set

1 59647U 24082S 26255.47822653 .00004558 00000-0 17507-3 0 9999
2 59647 43.0038 165.3701 0001379 275.3079 84.7615 15.27579736133423
Epoch: Sep 12, 2026 • Age: 15 hours

Current Status

Altitude 482.7 km
Apogee / Perigee N/A
Velocity 7.63 km/s
Sub-Earth Point 16.88°N, 63.22°W
Launch Date May 3, 2024
Age 2.3 years
Type internet

Technical Details

Classification Payload
Mass 730.00 kg
Dry Mass 700.00 kg
Total Mass 730.00 kg
Length 0.30 m
Diameter 4.10 m
Span 29.00 m
Shape Box + pan
Manufacturer SPXS
Bus Type Starlink V2M
Phase Status In Orbit
Owner/State SPXS/US

Most Searched